Date String (YYYY-MM-DD hh:mm:ss) UTC,Instrument flags,Ambient pressure (hPa),Sample flow (lpm),Bypass flow (lpm),Sample temperature (°C),Ambient temperature (°C),ASC tube jacket temperature (°C),LED temperature (°C),Box temperature (°C),Sample RH (%),Span deviation,Mass concentration (μg/m³),Mass concentration (μg/m³),Mass concentration (μg/m³)
DateTimeUTC,F1_M11,P_M11,Q1_M11,Q2_M11,T1_M11,T2_M11,T3_M11,T4_M11,T5_M11,U1_M11,ZSPAN_M11,X0_M11,X2_M11,X1_M11
2022-04-21 08:00:00,,0824.2,5.00,0.00,28.4,27.6,00.0,37.5,30.1,10.1,0000.0,0021.31,0005.52,0002.15
2022-04-21 08:01:00,,0824.2,5.01,0.00,28.4,27.6,00.0,37.5,30.2,10.1,0000.0,0021.81,0005.47,0002.14
2022-04-21 08:02:00,,0824.1,5.02,0.00,28.4,27.6,00.0,37.4,30.1,10.1,0000.0,0021.77,0005.40,0002.16
2022-04-21 08:03:00,,0824.2,4.99,0.00,28.4,27.5,00.0,37.4,30.1,10.1,0000.0,0021.33,0005.38,0002.17
2022-04-21 08:04:00,,0824.2,4.99,0.00,28.4,27.5,00.0,37.4,30.1,10.1,0000.0,0022.79,0005.37,0002.17
2022-04-21 08:05:00,,0824.1,5.00,0.00,28.4,27.5,00.0,37.4,30.1,10.1,0000.0,0022.86,0005.37,0002.16
2022-04-21 08:06:00,,0824.2,4.99,0.00,28.4,27.5,00.0,37.4,30.1,10.1,0000.0,0021.70,0005.34,0002.17
2022-04-21 08:07:00,,0824.2,4.99,0.00,28.4,27.5,00.0,37.4,30.1,10.1,0000.0,0022.69,0005.34,0002.16
2022-04-21 08:08:00,,0824.2,5.01,0.00,28.4,27.5,00.0,37.4,30.1,10.1,0000.0,0023.80,0005.30,0002.17
2022-04-21 08:09:00,,0824.2,5.01,0.00,28.4,27.5,00.0,37.4,30.1,10.1,0000.0,0024.38,0005.30,0002.19
2022-04-21 08:10:00,,0824.2,4.99,0.00,28.4,27.5,00.0,37.4,30.1,10.1,0000.0,0025.03,0005.30,0002.20
2022-04-21 08:11:00,,0824.2,5.00,0.00,28.4,27.5,00.0,37.4,30.1,10.1,0000.0,0025.21,0005.25,0002.19
2022-04-21 08:12:00,,0824.3,5.02,0.00,28.4,27.4,00.0,37.4,30.1,10.1,0000.0,0025.56,0005.28,0002.20
2022-04-21 08:13:00,,0824.2,4.99,0.00,28.4,27.4,00.0,37.4,30.1,10.1,0000.0,0025.65,0005.37,0002.21
2022-04-21 08:14:00,,0824.2,4.99,0.00,28.4,27.5,00.0,37.4,30.1,10.2,0000.0,0025.52,0005.36,0002.21
2022-04-21 08:15:00,,0824.2,4.99,0.00,28.4,27.5,00.0,37.4,30.1,10.2,0000.0,0024.29,0005.38,0002.21
2022-04-21 08:16:00,,0824.2,5.01,0.00,28.4,27.5,00.0,37.4,30.1,10.2,0000.0,0024.07,0005.34,0002.22
2022-04-21 08:17:00,,0824.2,5.00,0.00,28.4,27.5,00.0,37.4,30.1,10.2,0000.0,0025.01,0005.39,0002.22
2022-04-21 08:18:00,,0824.1,4.99,0.00,28.4,27.5,00.0,37.3,30.1,10.2,0000.0,0024.25,0005.39,0002.22
2022-04-21 08:19:00,,0824.1,5.00,0.00,28.4,27.5,00.0,37.3,30.1,10.2,0000.0,0023.62,0005.40,0002.23
2022-04-21 08:20:00,,0824.2,5.00,0.00,28.3,27.5,00.0,37.3,30.1,10.2,0000.0,0022.66,0005.38,0002.23
2022-04-21 08:21:00,,0824.2,5.00,0.00,28.3,27.5,00.0,37.3,30.1,10.2,0000.0,0021.99,0005.41,0002.24
2022-04-21 08:22:00,,0824.2,5.00,0.00,28.3,27.5,00.0,37.3,30.1,10.2,0000.0,0022.75,0005.53,0002.26
2022-04-21 08:23:00,,0824.2,5.00,0.00,28.3,27.5,00.0,37.3,30.1,10.2,0000.0,0022.53,0005.62,0002.30
2022-04-21 08:24:00,,0824.3,5.01,0.00,28.3,27.5,00.0,37.3,30.1,10.2,0000.0,0023.72,0005.68,0002.32
2022-04-21 08:25:00,,0824.2,5.00,0.00,28.3,27.5,00.0,37.3,30.1,10.2,0000.0,0026.06,0005.74,0002.33
2022-04-21 08:26:00,,0824.3,5.00,0.00,28.3,27.5,00.0,37.3,30.1,10.2,0000.0,0027.43,0005.77,0002.35
2022-04-21 08:27:00,,0824.2,5.00,0.00,28.3,27.4,00.0,37.3,30.1,10.2,0000.0,0027.01,0005.76,0002.37
2022-04-21 08:28:00,,0824.3,5.00,0.00,28.3,27.4,00.0,37.3,30.1,10.2,0000.0,0026.32,0005.83,0002.38
2022-04-21 08:29:00,,0824.3,5.00,0.00,28.3,27.4,00.0,37.3,30.1,10.2,0000.0,0026.00,0005.86,0002.40
2022-04-21 08:30:00,,0824.2,4.99,0.00,28.3,27.4,00.0,37.3,30.1,10.2,0000.0,0025.46,0005.86,0002.41
2022-04-21 08:31:00,,0824.3,4.99,0.00,28.3,27.4,00.0,37.3,30.1,10.3,0000.0,0025.83,0005.86,0002.40
2022-04-21 08:32:00,,0824.2,5.01,0.00,28.3,27.4,00.0,37.3,30.1,10.3,0000.0,0026.43,0005.91,0002.42
2022-04-21 08:33:00,,0824.2,5.01,0.00,28.3,27.4,00.0,37.3,30.1,10.3,0000.0,0025.51,0005.85,0002.42
2022-04-21 08:34:00,,0824.3,4.99,0.00,28.3,27.4,00.0,37.3,30.1,10.3,0000.0,0024.98,0005.82,0002.41
2022-04-21 08:35:00,,0824.3,4.99,0.00,28.3,27.4,00.0,37.3,30.0,10.3,0000.0,0023.82,0005.76,0002.41
2022-04-21 08:36:00,,0824.3,5.00,0.00,28.3,27.4,00.0,37.3,30.0,10.3,0000.0,0021.40,0005.71,0002.43
2022-04-21 08:37:00,,0824.3,5.01,0.00,28.3,27.4,00.0,37.3,30.0,10.3,0000.0,0020.20,0005.74,0002.44
2022-04-21 08:38:00,,0824.3,5.01,0.00,28.2,27.3,00.0,37.2,30.0,10.3,0000.0,0020.51,0005.74,0002.45
2022-04-21 08:39:00,,0824.3,5.01,0.00,28.2,27.3,00.0,37.2,30.0,10.3,0000.0,0021.17,0005.69,0002.44
2022-04-21 08:40:00,,0824.3,5.00,0.00,28.2,27.3,00.0,37.2,30.0,10.3,0000.0,0020.53,0005.68,0002.46
2022-04-21 08:41:00,,0824.3,4.99,0.00,28.2,27.4,00.0,37.2,30.0,10.3,0000.0,0020.39,0005.66,0002.46
2022-04-21 08:42:00,,0824.3,4.99,0.00,28.2,27.3,00.0,37.2,30.0,10.3,0000.0,0020.40,0005.74,0002.50
2022-04-21 08:43:00,,0824.3,5.01,0.00,28.2,27.3,00.0,37.2,30.0,10.3,0000.0,0019.57,0005.75,0002.51
2022-04-21 08:44:00,,0824.3,5.00,0.00,28.2,27.3,00.0,37.2,30.0,10.3,0000.0,0019.51,0005.72,0002.51
2022-04-21 08:45:00,,0824.3,5.00,0.00,28.2,27.3,00.0,37.2,30.0,10.3,0000.0,0020.33,0005.69,0002.50
2022-04-21 08:46:00,,0824.3,4.99,0.00,28.2,27.3,00.0,37.2,30.0,10.4,0000.0,0021.10,0005.70,0002.49
2022-04-21 08:47:00,,0824.3,5.01,0.00,28.2,27.4,00.0,37.2,30.0,10.4,0000.0,0022.84,0005.85,0002.49
2022-04-21 08:48:00,,0824.3,5.00,0.00,28.2,27.4,00.0,37.2,30.0,10.4,0000.0,0024.08,0005.96,0002.49
2022-04-21 08:49:00,,0824.3,4.99,0.00,28.2,27.4,00.0,37.2,30.0,10.4,0000.0,0024.79,0006.10,0002.50
2022-04-21 08:50:00,,0824.3,4.99,0.00,28.2,27.3,00.0,37.2,30.0,10.4,0000.0,0025.42,0006.11,0002.54
2022-04-21 08:51:00,,0824.4,4.99,0.00,28.2,27.3,00.0,37.2,30.0,10.4,0000.0,0026.47,0006.15,0002.54
2022-04-21 08:52:00,,0824.4,5.01,0.00,28.2,27.3,00.0,37.2,30.0,10.4,0000.0,0026.69,0006.19,0002.55
2022-04-21 08:53:00,,0824.4,5.00,0.00,28.2,27.3,00.0,37.2,30.0,10.4,0000.0,0027.24,0006.16,0002.53
2022-04-21 08:54:00,,0824.4,5.01,0.00,28.2,27.3,00.0,37.2,30.0,10.4,0000.0,0027.82,0006.12,0002.51
2022-04-21 08:55:00,,0824.4,5.00,0.00,28.2,27.3,00.0,37.2,30.0,10.4,0000.0,0027.62,0006.18,0002.52
2022-04-21 08:56:00,,0824.4,4.99,0.00,28.2,27.3,00.0,37.1,30.0,10.3,0000.0,0027.87,0006.26,0002.52
2022-04-21 08:57:00,,0824.4,5.01,0.00,28.2,27.3,00.0,37.1,30.0,10.3,0000.0,0028.77,0006.31,0002.51
2022-04-21 08:58:00,,0824.4,5.00,0.00,28.2,27.3,00.0,37.1,30.0,10.3,0000.0,0028.09,0006.23,0002.50
2022-04-21 08:59:00,,0824.4,4.99,0.00,28.2,27.3,00.0,37.1,30.0,10.3,0000.0,0028.22,0006.12,0002.48
